Terug naar catalogus

USA 290

ActiefNavigatieVLEO
NORAD 43941·PAYLOAD·🇺🇸 United States

Gelanceerd Jan 19, 2019 vanaf Vandenberg Space Force Base

Loading…

Volgende Passages (komende 24 uur)

TLE

VerouderdSource: Mike McCants

Epoch: Aug 11, 2026, 03:06 UTC

1 43941U 19004A   26223.12917621 0.00008000  00000-0  12666-3 0    04
2 43941  73.5475 344.6601 0018900 127.1473 232.8526 15.53092134    02

Volg USA 290 in realtime met AllMySat

Download on the App Store